When you browse on this site, cookies collect data to enhance your experience and personalize the content and advertising you see.
Visit our Privacy Policy to learn more. By continuing to use the site, you agree to this use of cookies and data.
  • In Czech Republic
  • List of Countries
  • For 7 days
  • Water Temperature
  • Weather Map
  • Weather Widgets
  • user-avatar
    Login

    Hourly Weather Dortmund

    Today, 23 February, Sunday

    Time Temperature Precipitation Wind Pressure Humidity
    00:00 +8°C° 0 mm 6 mps 756 mmHg 86%
    01:00 +8°C° 0.3 mm 6 mps 756 mmHg 86%
    02:00 +8°C° 0.3 mm 6 mps 755 mmHg 86%
    03:00 +7°C° 0.3 mm 6 mps 754 mmHg 86%
    04:00 +7°C° 0.9 mm 6 mps 754 mmHg 86%
    05:00 +7°C° 0.9 mm 6 mps 753 mmHg 87%
    06:00 +7°C° 0 mm 5 mps 753 mmHg 82%
    07:00 +8°C° 1.9 mm 6 mps 751 mmHg 84%
    08:00 +7°C° 1.9 mm 8 mps 750 mmHg 86%
    09:00 +8°C° 1.9 mm 9 mps 749 mmHg 88%
    10:00 +9°C° 2.3 mm 10 mps 748 mmHg 87%
    11:00 +9°C° 2.3 mm 11 mps 747 mmHg 86%
    12:00 +10°C° 2.3 mm 12 mps 747 mmHg 84%
    13:00 +10°C° 1.8 mm 12 mps 747 mmHg 84%
    14:00 +10°C° 1.8 mm 12 mps 747 mmHg 83%
    15:00 +11°C° 1.8 mm 11 mps 747 mmHg 82%
    16:00 +8°C° 0.4 mm 11 mps 749 mmHg 79%
    17:00 +7°C° 0.4 mm 10 mps 750 mmHg 75%
    18:00 +6°C° 0.4 mm 9 mps 752 mmHg 71%
    19:00 +5°C° 0 mm 8 mps 754 mmHg 70%
    20:00 +4°C° 0 mm 6 mps 755 mmHg 68%
    21:00 +3°C° 0 mm 5 mps 756 mmHg 66%
    22:00 +2°C° 0 mm 5 mps 757 mmHg 67%
    23:00 +3°C° 0 mm 4 mps 758 mmHg 69%

    Tomorrow, 24 February, Monday

    Time Temperature Precipitation Wind Pressure Humidity
    00:00 +3°C° 0 mm 4 mps 759 mmHg 70%
    01:00 +3°C° 0 mm 3 mps 759 mmHg 72%
    02:00 +2°C° 0 mm 3 mps 759 mmHg 73%
    03:00 +2°C° 0 mm 3 mps 759 mmHg 75%
    04:00 +2°C° 0 mm 3 mps 758 mmHg 76%
    05:00 +3°C° 0 mm 2 mps 758 mmHg 78%
    06:00 +3°C° 0 mm 2 mps 758 mmHg 79%
    07:00 +2°C° 0 mm 3 mps 757 mmHg 78%
    08:00 +3°C° 0 mm 3 mps 757 mmHg 77%
    09:00 +3°C° 0 mm 3 mps 756 mmHg 75%
    10:00 +4°C° 0.3 mm 4 mps 754 mmHg 79%
    11:00 +5°C° 0.3 mm 5 mps 753 mmHg 82%
    12:00 +4°C° 0.3 mm 6 mps 752 mmHg 86%
    13:00 +7°C° 0.1 mm 6 mps 750 mmHg 87%
    14:00 +8°C° 0.1 mm 6 mps 749 mmHg 87%
    15:00 +9°C° 0.1 mm 6 mps 747 mmHg 88%
    16:00 +9°C° 0.1 mm 7 mps 747 mmHg 85%
    17:00 +9°C° 0.1 mm 8 mps 746 mmHg 82%
    18:00 +8°C° 0.1 mm 9 mps 745 mmHg 79%
    19:00 +9°C° 0.7 mm 8 mps 745 mmHg 81%
    20:00 +9°C° 0.7 mm 8 mps 744 mmHg 83%
    21:00 +9°C° 0.7 mm 8 mps 744 mmHg 85%
    22:00 +9°C° 0.2 mm 8 mps 743 mmHg 83%
    23:00 +9°C° 0.2 mm 8 mps 743 mmHg 81%

    Day after tomorrow, 25 February, Tuesday

    Time Temperature Precipitation Wind Pressure Humidity
    00:00 +9°C° 0.2 mm 8 mps 743 mmHg 79%
    01:00 +7°C° 0.1 mm 8 mps 743 mmHg 77%
    02:00 +6°C° 0.1 mm 7 mps 743 mmHg 74%
    03:00 +5°C° 0.1 mm 7 mps 743 mmHg 72%
    04:00 +5°C° 0 mm 7 mps 743 mmHg 71%
    05:00 +4°C° 0 mm 7 mps 743 mmHg 70%
    06:00 +4°C° 0 mm 7 mps 743 mmHg 69%
    07:00 +4°C° 0 mm 7 mps 743 mmHg 67%
    08:00 +4°C° 0 mm 7 mps 742 mmHg 65%
    09:00 +4°C° 0 mm 8 mps 742 mmHg 64%
    10:00 +4°C° 0.1 mm 8 mps 742 mmHg 61%
    11:00 +5°C° 0.1 mm 8 mps 742 mmHg 59%
    12:00 +5°C° 0.1 mm 8 mps 742 mmHg 57%
    13:00 +5°C° 0.1 mm 8 mps 742 mmHg 56%
    14:00 +5°C° 0.1 mm 8 mps 741 mmHg 55%
    15:00 +5°C° 0.1 mm 8 mps 741 mmHg 55%
    16:00 +4°C° 0 mm 7 mps 741 mmHg 58%
    17:00 +3°C° 0 mm 6 mps 741 mmHg 61%
    18:00 +2°C° 0 mm 5 mps 741 mmHg 64%
    19:00 +3°C° 0 mm 4 mps 741 mmHg 67%
    20:00 +3°C° 0 mm 4 mps 740 mmHg 69%
    21:00 +3°C° 0 mm 4 mps 740 mmHg 71%
    22:00 +3°C° 0.2 mm 4 mps 739 mmHg 77%
    23:00 +1°C° 0.2 mm 4 mps 738 mmHg 83%

    26 February, Wednesday

    Time Temperature Precipitation Wind Pressure Humidity
    00:00 +1°C° 0.2 mm 4 mps 737 mmHg 89%
    01:00 +1°C° 1.2 mm 5 mps 736 mmHg 85%
    02:00 +1°C° 1.2 mm 6 mps 736 mmHg 81%
    03:00 0°C° 1.2 mm 7 mps 735 mmHg 77%
    04:00 -1°C° 0 mm 7 mps 735 mmHg 77%
    05:00 -1°C° 0 mm 7 mps 735 mmHg 76%
    06:00 -1°C° 0 mm 7 mps 735 mmHg 75%
    07:00 -2°C° 0.1 mm 7 mps 735 mmHg 79%
    08:00 -2°C° 0.1 mm 7 mps 735 mmHg 82%
    09:00 -2°C° 0.1 mm 7 mps 735 mmHg 85%
    10:00 -1°C° 0.3 mm 6 mps 736 mmHg 84%
    11:00 0°C° 0.3 mm 5 mps 737 mmHg 83%
    12:00 +1°C° 0.3 mm 4 mps 738 mmHg 82%
    13:00 +3°C° 0.2 mm 4 mps 739 mmHg 77%
    14:00 +2°C° 0.2 mm 5 mps 740 mmHg 73%
    15:00 +3°C° 0.2 mm 5 mps 740 mmHg 69%
    16:00 +3°C° 0.4 mm 4 mps 741 mmHg 72%
    17:00 +3°C° 0.4 mm 4 mps 742 mmHg 75%
    18:00 +1°C° 0.4 mm 4 mps 743 mmHg 78%
    19:00 +1°C° 0.3 mm 4 mps 744 mmHg 80%
    20:00 +1°C° 0.3 mm 4 mps 744 mmHg 82%
    21:00 0°C° 0.3 mm 4 mps 745 mmHg 84%
    22:00 0°C° 0.1 mm 4 mps 745 mmHg 83%
    23:00 0°C° 0.1 mm 4 mps 746 mmHg 83%

    27 February, Thursday

    Time Temperature Precipitation Wind Pressure Humidity
    00:00 0°C° 0.1 mm 4 mps 746 mmHg 83%
    01:00 0°C° 0 mm 4 mps 746 mmHg 84%
    02:00 -1°C° 0 mm 4 mps 746 mmHg 86%
    03:00 -1°C° 0 mm 4 mps 747 mmHg 87%
    04:00 -1°C° 0 mm 4 mps 747 mmHg 87%
    05:00 0°C° 0 mm 3 mps 747 mmHg 88%
    06:00 -1°C° 0 mm 3 mps 747 mmHg 88%
    07:00 -1°C° 0 mm 4 mps 747 mmHg 84%
    08:00 0°C° 0 mm 4 mps 746 mmHg 80%
    09:00 0°C° 0 mm 5 mps 746 mmHg 76%
    10:00 +1°C° 0 mm 5 mps 745 mmHg 75%
    11:00 +1°C° 0 mm 5 mps 744 mmHg 73%
    12:00 +2°C° 0 mm 5 mps 743 mmHg 71%
    13:00 +1°C° 1 mm 6 mps 741 mmHg 78%
    14:00 -1°C° 1 mm 6 mps 739 mmHg 84%
    15:00 -1°C° 1 mm 7 mps 737 mmHg 91%
    16:00 0°C° 1.8 mm 7 mps 735 mmHg 91%
    17:00 0°C° 1.8 mm 7 mps 734 mmHg 91%
    18:00 +2°C° 1.8 mm 7 mps 732 mmHg 91%
    19:00 +2°C° 0.3 mm 8 mps 732 mmHg 87%
    20:00 +2°C° 0.3 mm 9 mps 732 mmHg 84%
    21:00 +2°C° 0.3 mm 11 mps 733 mmHg 81%
    22:00 +1°C° 0 mm 10 mps 735 mmHg 79%
    23:00 +1°C° 0 mm 10 mps 736 mmHg 78%

    28 February, Friday

    Time Temperature Precipitation Wind Pressure Humidity
    00:00 0°C° 0 mm 9 mps 738 mmHg 76%
    01:00 0°C° 0.1 mm 9 mps 740 mmHg 79%
    02:00 0°C° 0.1 mm 8 mps 741 mmHg 82%
    03:00 0°C° 0.1 mm 7 mps 743 mmHg 85%
    04:00 0°C° 0.1 mm 7 mps 743 mmHg 84%
    05:00 +1°C° 0.1 mm 6 mps 744 mmHg 83%
    06:00 0°C° 0.1 mm 5 mps 745 mmHg 82%
    07:00 +1°C° 0 mm 5 mps 745 mmHg 80%
    08:00 +1°C° 0 mm 5 mps 745 mmHg 78%
    09:00 +2°C° 0 mm 5 mps 745 mmHg 77%
    10:00 +2°C° 0.1 mm 5 mps 744 mmHg 77%
    11:00 +3°C° 0.1 mm 6 mps 744 mmHg 78%
    12:00 +4°C° 0.1 mm 6 mps 743 mmHg 79%
    13:00 +3°C° 0.2 mm 6 mps 743 mmHg 81%
    14:00 +3°C° 0.2 mm 6 mps 742 mmHg 83%
    15:00 +3°C° 0.2 mm 6 mps 741 mmHg 84%
    16:00 +3°C° 0.4 mm 5 mps 740 mmHg 87%
    17:00 +4°C° 0.4 mm 4 mps 740 mmHg 89%
    18:00 +4°C° 0.4 mm 3 mps 739 mmHg 91%
    19:00 +4°C° 1.2 mm 3 mps 737 mmHg 92%
    20:00 +4°C° 1.2 mm 3 mps 736 mmHg 92%
    21:00 +4°C° 1.2 mm 3 mps 735 mmHg 93%
    22:00 +4°C° 2.3 mm 3 mps 734 mmHg 94%
    23:00 +5°C° 2.3 mm 4 mps 733 mmHg 95%
    Show more